{"data":{"norad_id":64217,"epoch":"2026-09-20T06:40:29.193024Z","epoch_age_seconds":156757,"freshness":"FRESH","line1":"1 64217U 25117Q   26263.27811566  .00023071  00000+0  69144-3 0  9990","line2":"2 64217  53.1560 212.5304 0000935 175.1719 184.9292 15.34418282 74360","mean_motion":15.34418282,"eccentricity":9.35e-5,"inclination_deg":53.156,"raan_deg":212.5304,"arg_perigee_deg":175.1719,"mean_anomaly_deg":184.9292,"bstar":0.00069144,"rev_number":7436,"period_min":93.846639921617,"perigee_km":462.00928930795,"apogee_km":463.28851627177,"semimajor_km":6840.7859027899,"source":"CELESTRAK","updated_at":"2026-09-21T09:00:35.272947Z"}}